Location: Newark
(42.3070°N, 2.7230°E)
Time: 08:26:26
(UTC+00:00)

Starlink (trailer) - Visible Passes

Search period start: 24 July 2019 00:00
Search period end: 03 August 2019 00:00
Orbit: 548 x 551 km, 53.0° (Epoch: 23 July)

Date Brightness Start Highest point End Pass type
(mag) Time Alt. Az. Time Alt. Az. Time Alt. Az.
24 Jul 4.7 00:27:41 44° N 00:27:41 44° N 00:31:00 10° NE visible
24 Jul 6.0 02:04:08 10° WNW 02:07:17 20° N 02:10:25 10° NE visible
24 Jul 6.2 03:44:49 10° NW 03:48:00 21° NNE 03:51:12 10° ENE visible
25 Jul 4.9 00:21:56 39° NNW 00:21:56 39° NNW 00:25:33 10° NE visible
25 Jul 6.2 01:59:01 10° NW 02:02:03 19° N 02:05:05 10° NE visible
25 Jul 6.1 03:39:25 10° NW 03:42:46 23° NNE 03:46:06 10° ENE visible
25 Jul 6.3 22:40:28 11° ENE 22:40:28 11° ENE 22:40:36 10° ENE visible
26 Jul 5.1 00:16:04 33° NNW 00:16:17 33° NNW 00:20:05 10° NE visible
26 Jul 6.3 01:53:52 10° NW 01:56:50 19° N 01:59:48 10° NE visible
26 Jul 5.9 03:34:01 10° NW 03:37:30 25° NNE 03:40:59 10° ENE visible
26 Jul 6.0 22:34:28 15° ENE 22:34:28 15° ENE 22:35:14 10° ENE visible
27 Jul 5.5 00:10:03 26° NW 00:10:59 28° NNW 00:14:38 10° NE visible
27 Jul 6.3 01:48:40 10° NW 01:51:37 18° N 01:54:34 10° NE visible
27 Jul 5.7 03:28:34 10° NW 03:32:14 29° NNE 03:35:53 10° E visible
27 Jul 5.4 22:28:09 24° NE 22:28:09 24° NE 22:29:50 10° NE visible
28 Jul 5.8 00:03:42 18° WNW 00:05:43 25° NNW 00:09:12 10° NE visible
28 Jul 6.3 01:43:25 10° NW 01:46:24 19° N 01:49:22 10° NE visible
28 Jul 5.4 03:23:06 10° NW 03:26:56 34° NNE 03:30:44 10° E visible
28 Jul 4.1 22:20:55 56° NNE 22:20:55 56° NNE 22:24:25 10° NE visible
28 Jul 6.0 23:57:08 10° WNW 00:00:27 22° NNW 00:03:46 10° NE visible
29 Jul 6.3 01:38:07 10° NW 01:41:10 19° N 01:44:13 10° NE visible
29 Jul 5.0 03:17:38 10° NW 03:21:36 42° NNE 03:25:32 10° E visible
29 Jul 4.5 20:32:01 10° S 20:35:31 27° SE 20:39:02 10° ENE visible
29 Jul 4.4 22:10:51 10° WSW 22:14:54 52° NNW 22:18:58 10° NE visible
29 Jul 6.2 23:52:02 10° WNW 23:55:13 21° N 23:58:23 10° NE visible
30 Jul 6.2 01:32:46 10° NW 01:35:56 21° N 01:39:06 10° ENE visible
30 Jul 4.5 03:12:11 10° NW 03:16:15 52° NNE 03:20:17 10° ESE visible
30 Jul 4.1 20:26:11 10° SSW 20:30:00 36° SE 20:33:49 10° ENE visible
30 Jul 4.9 22:05:36 10° W 22:09:33 41° NNW 22:13:30 10° NE visible
30 Jul 6.3 23:46:55 10° NW 23:49:59 19° N 23:53:02 10° NE visible
31 Jul 6.1 01:27:22 10° NW 01:30:42 22° NNE 01:34:00 10° ENE visible
31 Jul 4.0 03:06:44 10° NW 03:10:52 67° NE 03:14:59 10° ESE visible
31 Jul 3.8 20:20:30 10° SSW 20:24:30 49° SE 20:28:32 10° ENE visible
31 Jul 5.3 22:00:24 10° W 22:04:13 34° NNW 22:08:02 10° NE visible
31 Jul 6.4 23:41:46 10° NW 23:44:45 19° N 23:47:43 10° NE visible
01 Aug 5.9 01:21:57 10° NW 01:25:26 25° NNE 01:28:54 10° ENE visible
01 Aug 3.6 03:01:18 10° NW 03:05:28 87° NE 03:09:36 10° SE visible
01 Aug 3.5 20:14:56 10° SW 20:19:02 68° SE 20:23:10 10° ENE visible
01 Aug 5.6 21:55:15 10° W 21:58:54 29° NNW 22:02:35 10° NE visible
01 Aug 6.4 23:36:34 10° NW 23:39:31 18° N 23:42:28 10° NE visible
02 Aug 5.6 01:16:30 10° NW 01:20:08 28° NNE 01:23:46 10° E visible
02 Aug 3.5 02:55:54 10° WNW 03:00:02 71° SW 03:04:09 10° SE visible
02 Aug 3.6 20:09:27 10° SW 20:13:36 89° SE 20:17:47 10° NE visible
02 Aug 5.9 21:50:07 10° WNW 21:53:37 25° NNW 21:57:08 10° NE visible
02 Aug 6.3 23:31:19 10° NW 23:34:18 19° N 23:37:16 10° NE visible
